Theta_e
325 329 327 327 328 325 327 331 330 327 323 320 321 327 332 329 328 332 326 323 326 324 321 320 318 317 317 315 314 314 313 312 312 311 311 311 311 311 312 311 312 311 307 305 306 307 307 306 306 306 306 306 305 305 305 304 304 304 304 304 303 304 304 304 304 304 304 303 303 303 303 303 302 301 300 300 300 300 301 301 300 300 299 298 298 298 298
326 327 326 330 333 328 327 329 328 330 332 331 335 337 333 329 329 330 325 323 324 321 319 318 317 316 315 314 314 313 312 312 311 310 310 310 310 310 310 311 311 308 305 305 305 306 306 306 306 305 306 306 304 304 304 303 304 304 303 303 302 303 303 302 302 302 302 301 301 301 301 303 302 301 300 300 300 299 300 300 300 299 298 298 298 297 297
328 326 325 327 331 331 330 328 326 328 330 331 333 332 329 328 328 324 323 324 323 320 317 317 316 315 315 314 314 313 312 311 310 310 310 309 309 309 309 310 310 306 304 305 305 305 306 306 305 304 305 305 304 304 303 303 303 303 302 302 302 302 302 301 300 300 299 299 299 299 300 301 302 301 300 299 299 299 299 299 299 299 298 298 297 297 297
330 327 326 326 328 331 333 332 328 325 326 327 328 327 326 326 325 323 324 324 322 319 317 316 315 315 314 314 313 312 311 310 310 309 309 308 308 308 308 309 310 307 304 305 305 305 305 305 304 304 304 304 304 303 303 303 302 302 302 301 302 301 301 300 299 299 298 297 298 298 299 299 300 300 300 299 299 299 299 299 299 299 298 298 297 297 297
330 329 330 332 335 334 332 330 324 322 324 325 326 327 325 323 323 323 324 323 320 318 316 316 315 314 314 313 312 311 310 310 309 308 308 307 307 307 308 309 309 307 304 305 306 305 305 305 304 303 303 303 303 303 303 302 302 302 302 301 301 301 300 299 299 298 298 297 297 297 298 298 298 299 300 299 298 298 298 299 299 298 298 298 297 297 297
331 330 332 335 336 333 328 322 319 321 323 323 324 324 323 322 322 322 322 320 318 317 316 316 315 314 313 313 311 310 310 309 308 308 307 306 306 306 308 307 305 305 305 305 305 305 304 304 303 303 303 302 303 303 303 302 301 301 301 301 300 300 300 299 299 298 298 297 297 297 297 297 298 298 298 298 297 297 297 299 299 299 298 298 297 297 297
331 332 334 334 331 328 324 318 316 318 320 318 319 319 318 319 321 321 319 318 317 316 316 315 314 313 312 312 310 310 309 308 307 307 306 306 305 306 308 306 303 304 305 304 305 304 303 303 303 303 303 302 302 303 302 302 301 301 301 300 300 300 300 300 299 299 298 298 297 297 296 297 297 297 296 296 296 296 297 299 299 298 297 297 297 297 296
329 331 333 331 326 322 319 317 316 317 319 318 319 321 318 316 318 319 318 317 316 315 314 313 312 311 310 309 309 308 308 307 306 306 305 305 305 305 305 304 303 304 304 304 304 304 303 303 303 302 302 302 302 302 302 301 301 301 300 300 299 299 299 299 299 299 298 298 297 297 296 296 296 296 295 295 295 297 298 298 297 296 295 295 295 295 295
324 326 325 323 322 321 320 319 319 319 322 321 321 324 321 316 316 318 316 316 315 313 312 310 309 309 308 309 309 307 307 306 306 305 304 304 304 303 304 304 304 304 304 303 304 303 303 303 302 302 302 301 301 302 302 301 301 300 300 300 300 299 299 299 299 299 299 298 297 297 296 296 296 296 295 295 295 296 297 296 295 294 294 294 293 294 293
320 322 323 321 324 325 321 321 322 321 322 320 318 322 322 316 316 317 315 315 313 311 310 310 309 309 310 309 309 307 307 306 305 304 304 303 303 303 303 304 304 303 303 303 303 303 302 302 302 301 301 301 301 301 301 301 301 300 300 300 300 299 299 299 299 299 299 298 297 297 296 297 296 296 296 295 295 295 295 295 295 295 294 293 293 293 293
321 325 328 324 324 325 321 322 323 320 319 319 318 324 325 317 314 316 314 313 311 310 310 310 310 311 311 309 308 307 306 306 304 304 303 303 303 303 303 304 304 303 303 303 302 302 302 301 301 301 301 301 301 300 301 301 301 300 300 300 300 300 299 299 299 299 299 299 298 297 296 296 296 296 296 295 295 295 295 295 295 295 294 293 293 292 292
323 326 328 324 324 324 322 322 322 318 317 317 318 326 327 317 314 315 314 312 311 309 309 310 311 313 311 309 308 307 305 305 304 303 303 303 303 303 303 303 303 303 303 303 302 302 301 301 301 301 301 301 300 300 300 300 301 301 300 300 300 300 299 299 299 299 299 299 298 297 296 296 296 296 296 295 295 295 295 294 294 294 294 293 293 292 292
324 326 328 326 325 324 322 322 320 315 315 318 321 327 324 316 313 315 313 311 310 309 309 311 312 311 309 307 307 306 305 304 303 303 303 303 303 303 303 303 303 303 303 303 302 302 301 301 301 301 301 300 300 300 300 300 300 300 300 300 300 300 300 299 299 299 299 299 298 298 297 296 296 296 295 295 295 295 294 294 294 294 293 293 293 292 292
322 324 326 326 326 324 321 321 318 315 318 324 325 321 315 311 312 313 311 310 309 309 310 310 309 308 307 307 307 305 304 303 303 302 302 302 302 302 302 302 302 303 302 302 302 302 301 301 301 300 300 300 300 299 300 300 300 300 300 300 300 300 300 300 299 299 299 298 298 298 297 296 296 296 295 295 295 295 294 294 294 293 293 293 293 292 292
322 324 324 326 328 323 319 318 318 319 323 325 319 313 311 311 311 310 310 309 308 308 309 308 307 307 307 307 306 304 303 302 302 302 302 302 302 301 302 302 302 302 302 302 302 302 301 301 300 300 300 300 300 300 299 299 299 299 299 299 299 299 300 300 300 299 299 299 298 298 297 297 296 296 295 295 295 295 295 294 294 293 293 293 292 292 292
324 327 325 324 324 320 318 321 322 321 320 316 311 311 312 311 310 309 309 308 308 308 308 307 307 307 307 306 304 303 303 302 302 302 302 301 301 301 301 302 302 302 302 302 301 301 301 301 300 300 300 300 300 300 299 299 299 299 299 299 299 299 299 300 300 300 299 299 299 298 298 297 297 296 296 295 295 295 294 294 294 293 293 293 292 292 292
319 323 321 317 315 314 316 319 317 314 312 310 310 311 311 310 309 308 308 307 308 307 307 307 307 307 306 304 303 302 303 302 301 301 301 301 301 301 301 302 302 302 302 301 301 301 301 301 300 300 300 300 299 299 299 299 299 299 299 299 299 299 299 299 299 300 300 299 299 299 298 298 297 297 296 296 295 295 295 294 294 293 293 293 292 292 292
315 318 316 313 313 313 312 312 311 309 309 309 309 310 309 309 308 307 306 307 306 306 306 306 306 305 304 303 303 302 302 301 301 300 300 300 301 301 301 301 301 301 301 301 301 301 301 301 301 300 300 300 300 300 299 299 299 299 299 299 299 299 299 299 299 299 300 300 300 299 299 298 298 297 296 296 295 295 295 294 294 293 293 293 292 292 292
318 319 315 312 313 312 310 310 310 309 309 309 308 308 308 308 307 306 307 306 305 305 306 306 305 305 304 303 302 301 302 301 300 300 300 300 300 301 301 300 300 300 300 300 300 300 300 300 300 300 300 300 300 300 299 299 299 299 299 299 299 299 299 299 299 299 299 299 299 299 299 298 298 297 297 296 296 295 295 294 294 293 293 293 292 292 292
319 318 314 312 312 311 310 310 309 309 309 309 309 308 307 307 307 306 306 305 305 306 305 305 305 304 304 303 302 301 301 300 299 299 299 299 299 300 300 300 300 299 299 299 299 300 300 300 300 300 300 300 300 299 299 299 299 299 299 299 299 299 299 299 299 299 298 298 298 298 298 298 298 298 297 297 296 296 295 295 294 294 293 293 293 292 292
315 314 312 312 313 312 310 310 309 309 309 308 308 308 307 307 307 306 305 305 305 305 305 305 304 304 303 302 300 300 300 299 299 299 299 298 299 299 299 299 299 299 299 299 299 300 300 300 300 300 300 300 300 299 299 299 299 299 299 299 299 299 299 299 299 298 298 297 298 298 297 297 297 297 297 297 297 296 296 295 295 294 293 293 293 293 292
315 315 313 312 314 313 311 310 309 309 308 308 307 307 307 306 306 306 305 305 305 305 305 304 304 304 302 300 299 299 299 299 298 298 298 298 299 299 299 299 299 299 299 299 299 299 300 300 301 300 300 300 300 300 299 299 299 299 299 299 299 299 299 299 299 299 298 298 298 298 297 297 297 297 297 297 296 296 296 296 295 294 294 293 293 293 293
315 315 313 312 313 312 310 309 309 308 308 307 307 307 306 306 306 305 305 305 305 305 305 304 304 303 300 299 299 299 299 298 298 298 298 298 298 299 299 299 299 299 299 299 299 300 300 300 301 301 300 300 300 300 299 299 299 299 299 298 298 299 299 299 299 299 298 298 298 298 297 297 296 296 296 296 296 296 295 296 296 295 294 293 293 293 293
314 313 313 312 312 310 309 309 308 308 307 307 307 306 306 305 305 304 304 305 305 305 304 304 303 301 299 299 299 299 298 298 298 298 299 299 299 299 299 299 300 300 300 300 300 300 300 300 301 301 300 300 300 300 300 299 299 300 299 298 297 298 299 299 299 298 298 298 298 298 297 297 297 296 296 296 296 295 295 295 296 295 294 294 293 293 293
313 312 311 310 310 309 309 308 308 307 307 306 307 306 306 305 304 304 304 304 304 304 304 302 300 299 299 299 299 298 298 298 298 299 299 299 299 299 299 299 300 300 300 300 300 300 300 300 301 301 300 300 300 300 299 299 299 300 299 297 296 297 299 299 299 298 298 298 298 298 297 297 297 296 296 296 296 295 295 295 295 295 295 294 294 293 293
310 309 309 309 309 309 308 308 308 308 306 306 306 306 305 304 304 303 304 304 304 303 302 299 298 299 299 299 299 298 298 298 299 299 299 299 299 299 299 300 300 300 300 300 300 300 300 300 300 301 301 300 300 300 299 299 299 299 298 297 296 297 298 299 299 298 298 298 298 298 297 297 297 296 296 296 296 296 295 295 295 295 295 294 294 293 293
308 308 309 309 309 309 309 309 308 308 306 306 306 305 305 305 304 304 304 304 303 302 300 299 298 299 299 299 299 298 298 298 298 299 299 299 299 299 299 299 300 300 300 300 300 300 300 300 300 300 300 300 300 300 299 299 299 299 298 297 297 297 298 299 298 298 298 298 298 297 297 297 297 296 296 296 296 296 296 295 295 295 295 295 294 294 293
309 309 309 310 309 309 309 308 307 306 305 305 305 305 305 305 304 304 304 303 301 299 298 298 299 298 298 298 298 298 298 298 298 298 299 299 299 299 299 300 300 300 300 300 300 300 300 300 300 300 300 300 300 299 299 299 299 299 298 297 297 298 298 298 298 298 298 297 298 297 297 297 297 296 296 296 296 296 296 295 295 295 295 295 295 294 294
310 310 310 309 308 307 307 306 306 306 306 306 306 305 305 305 304 304 303 301 299 298 297 298 298 298 298 298 298 298 298 298 298 298 299 299 299 299 299 299 300 300 300 300 300 300 300 300 300 300 300 299 299 298 299 299 299 299 298 298 298 298 297 297 298 297 297 297 297 297 297 297 297 297 297 297 296 296 296 295 296 296 295 295 295 295 294
310 309 309 309 308 307 307 307 307 307 307 307 306 305 305 304 304 303 302 300 298 297 297 297 298 298 298 298 298 298 298 298 298 299 299 299 299 298 298 299 299 299 299 300 300 300 300 300 300 299 299 299 298 298 298 298 299 299 298 298 298 297 296 296 296 296 296 297 297 297 297 296 297 296 296 297 297 296 296 296 296 295 295 296 295 295 294
308 308 309 308 307 308 308 307 307 307 307 307 307 306 305 304 303 302 301 300 298 297 297 297 297 297 298 298 298 299 299 299 299 299 299 299 299 298 299 299 299 299 299 299 300 300 300 300 300 299 299 298 298 297 297 297 297 297 297 297 297 297 296 295 295 296 297 297 297 297 297 296 296 296 296 297 297 296 296 296 296 296 296 296 295 295 295
308 308 309 308 308 308 308 308 307 307 307 307 307 306 304 303 302 301 300 299 298 297 297 297 297 297 298 298 299 299 299 299 299 299 299 299 299 299 299 299 299 299 299 299 300 300 300 299 299 299 298 298 297 297 297 297 297 296 296 297 296 296 296 296 295 295 296 297 297 296 296 296 296 296 296 297 297 296 296 296 296 296 296 296 296 295 295
308 308 308 308 307 307 307 307 307 307 307 307 306 303 302 300 300 299 299 298 297 297 297 297 297 298 298 298 299 299 299 298 298 298 299 299 299 299 299 299 299 299 299 300 300 300 299 299 299 298 298 298 298 297 297 297 297 297 297 296 296 297 297 296 295 295 296 296 296 296 296 296 296 296 296 297 296 296 296 296 296 296 296 296 296 295 295
308 308 308 307 307 307 307 307 307 307 307 306 303 300 299 299 299 299 298 298 297 297 297 298 298 298 298 298 299 299 298 297 297 298 298 299 299 299 299 299 299 299 299 299 300 299 299 299 299 298 298 299 298 298 297 296 297 298 297 296 297 297 297 296 295 295 295 296 296 296 295 296 296 296 296 296 296 296 296 296 296 296 296 296 296 295 295
307 308 307 306 305 305 305 306 306 306 307 306 303 300 299 299 299 299 298 298 298 298 298 298 298 298 298 298 298 298 298 298 298 298 299 299 299 299 299 300 300 299 299 299 299 299 299 299 299 298 298 299 299 299 298 297 297 297 296 296 297 297 297 296 295 295 295 295 296 295 295 295 296 296 296 296 296 296 296 296 296 296 296 296 296 296 295
306 308 307 305 305 304 304 304 304 303 303 302 301 300 299 299 299 299 299 299 299 299 299 298 298 298 298 298 298 298 298 299 299 299 299 299 300 300 300 300 299 299 299 299 299 299 299 299 299 299 299 299 299 299 299 299 297 296 295 296 298 298 297 296 295 294 295 295 295 295 295 295 296 296 296 296 296 296 296 296 296 295 296 296 296 296 295
305 306 305 304 304 304 303 303 303 302 301 300 299 299 299 299 300 300 300 299 299 299 299 298 298 298 298 299 299 299 299 299 300 299 299 299 300 300 300 300 299 299 299 299 299 299 299 299 300 299 299 299 299 299 299 299 298 296 295 297 298 297 296 295 295 294 295 295 295 295 295 295 295 295 295 295 295 295 295 295 295 295 296 296 296 296 295
305 305 304 304 304 304 304 304 303 303 301 300 299 300 300 300 300 300 300 300 300 300 300 299 299 299 299 299 299 299 299 299 300 300 300 299 299 300 300 300 300 299 299 299 300 299 299 299 300 299 299 298 298 298 298 299 298 296 295 297 297 296 295 295 295 295 295 295 295 295 295 295 295 295 295 295 295 295 295 295 295 295 295 295 295 296 295
305 304 304 304 304 304 304 303 302 302 301 300 299 300 300 301 301 301 301 301 301 300 300 300 299 299 298 297 297 297 298 299 300 299 300 299 299 299 299 299 299 300 300 300 300 300 299 299 299 299 298 298 297 297 298 299 298 296 295 297 297 295 295 295 295 295 295 295 295 295 295 295 295 295 294 294 295 295 294 294 294 294 295 295 295 295 295
305 302 302 303 303 303 302 301 300 301 301 301 300 300 300 301 301 301 301 301 301 301 301 300 299 298 297 297 297 297 298 299 300 299 299 299 298 297 297 297 298 298 299 300 300 300 300 300 299 299 298 298 297 297 298 298 297 296 296 298 297 295 295 295 295 295 295 295 295 294 295 294 295 295 294 294 294 294 294 294 294 294 295 295 295 295 295
303 302 301 301 301 301 301 300 300 300 301 301 300 301 301 301 301 300 300 300 301 301 300 300 299 298 298 298 299 299 299 299 300 299 299 298 297 296 296 296 296 297 298 299 300 300 300 300 299 299 299 298 297 298 298 298 296 295 296 297 297 296 295 296 295 295 296 295 295 294 295 295 295 295 294 294 294 294 294 294 294 294 294 295 295 294 294
302 301 301 300 300 300 300 300 300 300 300 300 301 301 301 302 302 301 300 300 301 301 300 300 300 300 300 299 299 299 299 299 299 298 298 298 297 296 296 296 296 296 297 299 300 300 301 300 299 300 299 298 297 297 298 298 297 296 296 296 297 296 295 295 295 296 296 295 295 295 295 295 294 295 295 294 294 294 294 294 294 294 294 294 294 293 293
302 301 301 300 300 300 300 300 300 300 300 300 301 301 301 302 302 301 301 301 301 301 300 300 300 300 300 299 298 297 297 297 297 297 297 298 298 297 296 296 295 296 297 299 300 300 300 300 300 300 299 298 297 298 298 298 297 297 295 295 296 296 295 295 296 296 295 295 295 295 295 295 295 295 295 294 294 294 294 294 293 294 294 294 293 293 293
301 301 301 300 300 300 300 300 300 300 300 300 301 301 301 301 302 301 301 301 301 301 300 299 299 298 298 298 297 297 297 297 296 296 296 296 296 296 297 296 295 295 297 299 300 300 300 300 300 300 299 298 298 298 298 298 298 296 295 295 296 296 296 296 296 296 296 296 295 295 295 295 295 294 294 294 294 294 294 293 293 293 293 293 293 293 293
301 301 301 301 300 300 300 300 300 300 301 301 301 301 302 301 301 301 301 301 301 301 300 299 299 298 298 298 299 299 299 299 298 297 296 295 295 296 297 297 296 296 296 298 299 300 300 300 300 299 299 298 298 298 298 298 298 296 295 295 296 296 296 296 296 296 296 296 295 295 295 295 295 294 294 294 294 294 294 294 293 293 293 293 293 293 293
301 302 301 301 301 301 301 301 301 301 302 301 300 300 302 302 301 301 301 302 301 301 300 300 301 300 300 300 301 301 300 300 299 299 298 297 298 299 300 299 297 297 297 297 299 300 300 300 300 299 299 298 298 297 298 298 297 297 296 296 296 296 296 296 296 296 296 295 295 295 295 295 295 294 294 294 294 294 294 294 294 294 293 293 293 293 293
301 301 301 301 301 301 301 302 301 301 301 300 299 299 301 302 301 301 301 302 302 302 302 302 302 302 302 302 301 300 299 298 298 298 298 298 298 299 300 299 299 299 299 299 300 301 301 301 300 299 299 299 298 297 297 298 297 297 297 297 297 296 296 295 296 296 296 295 295 295 295 295 295 295 295 294 294 294 294 294 294 294 293 293 293 293 293
301 301 301 301 301 301 302 301 301 300 300 300 300 300 301 302 302 301 301 301 302 302 302 302 302 302 302 302 301 301 301 300 299 298 299 299 298 299 300 300 300 300 300 300 301 301 301 301 300 300 299 299 298 297 297 297 297 296 296 297 297 297 296 295 296 296 296 295 295 295 295 295 295 295 295 294 294 294 294 294 294 294 293 293 293 293 293
301 301 301 301 301 301 301 300 300 300 300 300 300 301 301 301 301 301 301 301 301 301 301 301 301 301 301 301 301 301 302 302 301 301 301 301 300 300 301 301 301 300 300 300 300 301 301 301 300 300 299 299 298 298 297 297 297 296 296 297 297 297 296 296 296 296 295 295 295 295 295 295 295 295 295 294 294 294 294 294 294 293 293 293 293 293 293
301 301 301 301 301 301 300 300 300 300 300 301 301 301 301 301 300 300 301 301 301 300 300 301 301 301 301 301 301 302 302 302 302 302 301 301 301 301 301 301 301 301 301 300 300 301 301 300 300 299 299 298 298 298 298 297 297 296 296 297 297 297 296 296 296 296 295 295 295 295 295 295 295 295 294 294 294 294 294 293 293 293 293 293 293 293 293
301 300 301 301 301 301 301 301 301 301 301 301 301 301 301 301 300 300 301 301 301 300 300 300 300 301 301 301 302 302 302 301 301 301 301 301 301 301 301 301 301 301 301 301 300 300 300 300 299 298 298 298 298 298 298 297 296 296 297 297 297 296 296 296 296 296 295 295 295 295 295 295 294 294 294 294 294 293 293 293 293 293 293 293 293 293 293
301 301 301 301 302 302 302 302 302 302 302 302 302 302 302 301 301 300 300 300 301 301 301 300 300 301 302 301 301 302 302 301 301 301 301 301 301 301 301 301 301 301 301 301 300 300 300 299 298 298 298 298 298 298 297 297 296 297 297 297 297 296 296 296 296 295 295 295 295 295 295 295 294 294 294 294 294 293 293 293 293 293 293 293 293 293 293
Wind_Speed
5 3 1 6 9 6 5 7 5 3 6 9 7 4 5 8 7 6 10 15 15 14 15 15 15 15 15 14 14 13 13 13 12 12 12 10 9 8 7 7 6 6 6 8 10 10 11 12 13 15 17 18 20 23 25 25 23 23 23 24 24 23 22 21 21 21 22 24 25 24 22 22 23 25 26 28 28 27 25 24 24 25 27 28 28 27 27
8 6 5 10 11 8 8 9 10 8 0 7 7 3 4 5 3 11 18 14 9 11 11 11 11 11 12 13 12 12 13 14 13 13 13 11 9 8 8 7 6 6 8 10 12 13 12 12 13 16 18 19 22 25 25 24 23 22 23 26 27 27 27 26 26 25 25 25 26 27 25 22 21 24 26 26 27 27 26 25 24 26 27 28 29 29 29
7 6 7 11 12 11 9 8 10 11 7 7 9 7 9 10 7 12 19 14 8 8 10 12 11 10 12 13 12 13 13 13 14 14 13 12 10 9 7 7 6 6 9 12 14 15 15 14 15 18 20 20 22 24 25 25 24 23 24 26 27 27 28 28 28 28 28 27 27 27 28 25 22 22 24 26 26 26 26 25 24 25 28 29 30 30 29
3 5 5 8 11 12 9 8 10 10 7 4 6 4 5 10 13 15 14 10 8 9 12 14 12 12 13 14 14 13 11 12 13 14 13 12 11 9 8 7 6 6 8 12 13 15 16 16 18 21 22 22 22 23 25 25 24 23 24 26 27 28 28 28 28 28 28 28 28 27 28 28 26 22 22 25 27 26 26 27 25 25 27 28 29 29 29
1 6 3 3 7 8 4 4 5 5 4 1 5 5 4 11 17 14 9 8 10 14 16 16 15 15 15 14 13 13 12 12 12 12 13 12 11 10 9 7 7 7 9 12 14 15 16 17 19 21 22 22 22 23 25 25 24 24 24 26 27 27 27 27 27 26 26 28 29 28 27 27 27 25 23 23 25 26 25 25 26 27 27 28 28 29 29
2 6 5 3 5 3 1 5 4 1 0 0 5 9 6 5 7 6 7 11 13 15 17 17 17 16 14 12 12 11 12 11 11 12 12 11 10 10 8 8 9 10 12 13 15 17 18 19 20 21 21 21 21 23 25 25 24 24 24 25 26 26 26 25 25 24 25 27 29 29 27 26 26 26 25 24 24 25 24 23 24 26 27 27 28 29 29
3 3 4 4 2 3 2 5 4 5 6 4 9 12 8 4 5 10 14 16 17 15 13 14 14 12 11 11 11 11 10 10 12 13 12 11 10 9 7 7 10 13 15 15 17 18 20 21 21 21 21 20 19 21 24 25 25 24 24 24 25 24 24 23 23 22 23 25 27 28 28 27 27 26 26 25 25 25 25 23 23 25 26 27 27 28 29
2 2 4 3 2 2 3 4 3 7 8 3 7 9 7 6 4 13 16 15 16 15 13 12 12 12 12 10 9 10 11 11 12 12 11 10 10 9 10 11 14 16 18 19 19 20 21 21 21 20 19 17 18 21 24 24 23 23 23 24 23 23 22 21 21 20 21 24 25 26 27 27 27 26 27 27 27 25 25 25 25 27 27 27 27 27 28
3 3 3 2 0 1 2 0 2 3 4 2 2 4 1 5 1 9 16 16 15 15 14 13 14 15 14 10 5 7 11 12 13 13 13 14 13 14 16 18 19 21 21 21 21 21 20 19 19 19 18 18 20 22 24 23 22 22 22 22 21 20 20 20 19 19 20 22 24 25 25 25 25 25 26 27 27 26 25 25 26 28 29 29 29 29 29
2 4 3 2 1 3 4 6 5 1 3 3 4 4 0 4 4 7 16 17 16 16 16 16 16 15 13 8 5 7 11 12 13 15 17 18 18 18 19 19 20 22 22 22 22 21 21 20 20 19 18 17 19 21 22 22 22 21 20 20 19 18 18 18 18 18 18 20 23 24 23 23 23 23 24 25 26 25 24 23 23 25 28 29 30 31 31
2 4 4 3 3 3 6 8 5 2 4 5 6 4 1 3 5 6 13 18 17 18 18 18 17 14 10 8 7 8 11 14 15 15 16 19 20 20 20 21 22 22 23 23 21 21 21 20 18 16 16 17 18 19 19 21 20 19 19 18 17 17 16 17 18 17 16 18 21 23 22 22 21 21 21 22 23 24 24 24 22 22 25 28 30 32 32
3 4 2 2 2 3 5 7 6 6 6 6 5 1 4 7 8 7 12 16 16 17 17 16 15 11 9 10 9 10 14 17 18 18 18 19 20 20 21 23 25 24 24 22 21 20 19 18 17 17 17 19 19 18 19 20 20 18 17 16 15 15 15 17 18 17 16 16 19 21 22 21 20 20 20 20 22 24 24 24 24 23 24 27 28 31 32
4 4 2 1 2 4 5 6 7 9 7 5 3 4 5 10 13 10 11 14 15 15 14 11 7 5 7 10 11 12 15 16 18 21 22 21 21 21 22 24 26 25 24 22 21 19 17 16 17 18 18 19 19 19 20 21 21 17 16 15 14 13 14 16 17 16 15 15 16 18 20 21 20 19 19 20 21 23 24 25 26 25 25 26 28 30 32
3 3 3 0 3 4 5 6 6 8 6 2 4 5 5 13 16 11 10 12 12 11 9 6 6 8 11 13 12 12 14 15 16 20 22 22 21 21 23 25 26 26 23 21 20 17 15 15 17 17 18 19 19 20 21 21 19 16 14 13 12 11 12 14 16 15 14 14 14 16 17 19 20 19 18 19 21 22 24 25 26 27 27 27 28 29 31
2 2 3 2 2 4 8 9 5 4 4 4 4 3 6 12 14 12 11 11 9 9 8 8 11 14 13 12 11 11 13 14 17 20 21 20 20 21 23 26 27 27 24 21 18 14 13 16 18 17 17 18 18 18 18 18 17 16 14 12 10 10 9 10 12 13 12 12 13 14 16 18 18 18 18 19 20 22 24 25 27 27 28 28 28 29 31
2 2 3 3 3 3 6 8 5 4 4 4 7 9 9 9 10 10 10 9 9 10 11 12 14 14 13 12 12 12 12 13 15 18 19 20 20 22 25 27 27 27 25 20 17 14 13 15 17 16 16 18 19 18 17 15 14 16 17 15 14 14 13 11 10 10 11 11 11 12 14 16 17 17 18 19 20 21 23 25 27 28 28 28 28 29 30
2 3 4 4 3 1 3 4 3 4 4 5 8 11 11 9 9 8 9 10 10 11 13 14 13 13 13 13 12 12 11 11 14 17 19 21 23 24 26 27 26 26 24 20 17 14 13 13 14 15 15 16 17 17 16 15 14 13 14 16 16 17 17 15 12 9 9 9 10 10 11 13 15 15 17 18 19 19 21 24 26 27 27 27 27 27 28
2 2 1 2 3 5 6 5 4 5 7 6 7 9 10 8 8 9 10 10 10 12 14 14 12 12 13 13 12 12 11 11 14 18 20 21 24 26 26 26 25 24 22 20 17 15 13 12 14 16 17 16 16 15 14 15 15 14 13 15 16 15 14 15 15 13 9 8 8 9 9 11 13 13 15 17 18 17 19 21 24 25 26 26 26 26 27
2 2 2 2 5 6 7 7 6 6 7 6 6 8 9 8 9 10 11 11 10 11 13 14 13 12 13 14 12 11 10 10 13 18 20 21 24 26 26 25 25 24 22 19 18 16 14 13 16 18 17 15 17 17 16 15 15 14 14 13 14 13 11 11 14 15 13 9 8 8 9 10 11 11 12 15 16 16 16 18 21 23 25 26 25 26 27
3 2 2 4 6 5 5 7 6 6 7 7 7 8 9 9 10 11 11 11 11 10 12 13 14 13 13 13 13 10 9 10 14 18 21 22 24 26 27 26 25 23 21 20 18 16 15 14 15 17 15 14 14 15 15 15 14 13 12 12 11 10 9 9 12 14 14 13 11 10 10 10 11 11 11 13 14 15 14 15 17 20 22 23 24 24 25
5 4 5 7 7 5 4 5 6 6 7 9 9 10 10 11 12 11 11 12 12 12 12 12 14 14 12 11 12 11 9 11 16 20 22 24 26 27 27 25 23 22 20 19 17 16 16 14 13 14 16 15 14 13 13 13 11 11 11 10 10 9 9 9 11 12 13 14 14 12 11 11 11 10 10 11 12 13 12 12 14 16 19 20 21 22 24
4 4 7 7 7 4 3 5 7 8 8 11 12 12 12 12 12 12 12 12 13 14 16 15 14 13 12 13 14 12 11 15 19 22 24 25 26 26 26 24 23 22 20 19 17 16 15 13 12 12 16 16 14 13 12 11 9 10 10 9 8 9 9 9 9 11 12 13 13 12 12 12 11 11 11 10 10 12 12 11 11 13 16 18 18 19 21
4 6 8 6 6 6 5 7 9 9 9 11 12 12 13 12 12 12 12 12 12 13 15 19 17 13 13 17 18 14 14 19 23 24 26 26 25 26 26 25 23 22 21 20 19 17 15 13 11 11 14 16 13 11 10 9 9 9 10 9 8 9 10 9 9 9 9 10 10 11 12 12 13 13 11 10 10 11 12 10 9 10 14 17 17 17 18
2 5 6 5 7 9 8 9 10 9 10 11 12 12 12 11 12 13 12 12 13 12 11 15 18 18 18 21 20 17 17 21 25 26 27 28 27 26 26 24 22 22 22 21 18 16 15 13 11 11 13 14 12 9 8 8 8 10 10 10 9 9 10 10 10 9 8 8 8 10 10 11 11 12 11 10 10 11 12 11 8 8 11 16 18 17 17
6 5 5 6 9 10 8 8 9 8 10 12 11 10 12 13 14 16 14 12 15 16 12 12 17 21 22 22 22 21 21 23 27 28 28 28 27 26 24 23 21 22 22 20 18 16 15 12 10 11 12 11 9 8 7 7 8 10 9 10 9 9 9 10 9 7 7 7 8 8 9 9 9 10 10 10 9 10 12 11 9 8 11 15 17 17 17
9 9 9 9 10 9 8 8 7 7 11 14 11 10 14 17 18 18 18 16 17 18 16 16 19 23 25 24 24 25 24 25 28 29 28 25 25 25 24 22 21 21 21 20 18 16 14 12 11 10 11 10 8 8 8 8 10 10 10 10 9 9 9 9 7 5 6 7 7 8 8 8 8 8 9 9 8 10 11 11 9 8 11 14 16 16 16
10 13 13 11 8 7 8 9 8 8 11 14 13 12 16 21 21 19 18 18 18 19 20 22 24 25 26 26 27 27 26 26 26 26 25 24 24 25 24 22 21 21 21 19 18 16 14 12 11 10 10 10 8 8 9 10 11 11 10 11 10 10 9 8 6 4 5 6 6 6 6 6 6 6 8 8 8 9 10 9 8 7 9 12 14 15 15
8 9 11 11 10 8 7 10 11 10 11 14 15 15 17 19 18 15 12 12 15 18 21 24 27 26 25 25 26 25 25 24 24 23 24 25 25 25 25 23 21 20 20 19 18 16 14 13 12 10 9 8 7 6 8 9 11 11 11 11 11 10 8 5 4 3 2 4 6 6 5 5 5 5 6 6 7 8 8 8 7 6 8 10 12 14 13
6 5 6 8 9 9 9 11 12 11 11 13 15 15 16 14 12 10 8 10 13 15 17 22 27 27 25 26 26 24 22 21 23 24 25 26 26 26 24 23 22 20 20 20 19 18 16 14 12 10 10 8 6 6 7 9 11 10 9 10 10 8 6 4 3 3 2 3 6 6 4 3 3 4 5 5 6 6 6 6 6 6 6 9 11 12 13
5 7 8 7 8 10 11 11 11 10 10 11 11 11 12 12 10 9 9 11 14 14 16 21 25 25 25 25 26 25 24 24 26 27 26 26 27 25 23 23 22 20 19 21 21 20 18 15 12 11 11 9 7 6 7 9 10 9 7 7 6 5 5 5 5 5 3 6 9 6 3 2 3 3 3 3 4 5 4 5 6 6 6 7 9 11 11
7 9 10 9 8 10 10 9 10 10 8 8 9 10 10 10 10 10 10 11 13 15 19 22 22 22 24 26 27 28 28 27 27 27 26 27 28 26 24 24 23 20 19 21 22 20 19 17 14 12 11 9 6 6 7 9 9 9 7 6 5 4 3 4 5 5 4 8 9 6 4 4 4 4 2 2 3 3 3 3 4 5 6 6 8 9 9
10 10 11 9 8 9 8 8 9 9 7 7 9 9 8 10 12 11 10 12 14 18 21 22 22 23 26 27 27 28 27 27 27 26 26 26 27 26 23 22 22 20 18 20 23 22 20 17 15 13 12 9 6 7 8 8 9 8 7 5 5 3 1 2 4 5 5 7 6 5 5 4 4 3 2 1 2 1 1 2 3 4 6 6 7 7 7
11 10 10 11 10 10 10 9 9 8 7 7 8 8 9 12 14 13 14 17 19 21 21 21 23 26 27 26 26 26 26 26 25 24 25 24 23 23 22 20 19 19 18 18 22 23 20 16 15 14 12 9 6 6 8 7 7 6 5 5 4 2 0 1 4 5 5 5 4 3 4 3 2 1 1 1 1 1 1 1 2 4 5 6 6 7 6
11 8 9 9 9 10 10 10 8 7 6 6 7 9 12 16 17 17 19 21 20 20 22 24 26 27 27 25 25 25 25 22 20 21 23 23 21 20 20 18 18 20 20 19 20 21 19 16 15 15 14 10 7 7 7 7 6 6 6 6 5 2 0 2 4 4 3 3 2 1 2 4 3 1 1 1 1 2 2 2 2 3 4 4 5 6 6
10 8 8 8 8 8 9 8 7 7 7 6 7 9 13 17 20 21 22 23 23 23 26 27 27 27 26 25 24 25 25 23 22 23 24 21 19 18 18 17 18 21 21 19 18 18 18 17 15 15 15 13 10 8 7 6 4 5 7 8 6 2 1 3 3 2 2 2 3 4 2 2 3 2 1 1 1 2 4 3 2 3 4 3 3 5 7
12 9 6 8 11 12 11 10 9 9 9 8 8 11 14 19 23 25 24 25 26 28 28 26 25 25 25 25 26 27 27 27 27 27 25 22 20 18 17 16 19 22 22 20 19 18 18 17 16 15 16 14 12 11 9 6 3 4 7 9 6 3 2 4 4 3 1 1 3 4 5 5 4 2 2 2 2 2 5 4 2 3 4 4 3 3 6
14 12 8 8 11 13 13 13 13 14 13 13 14 15 17 20 26 28 27 27 27 28 28 26 24 23 24 28 31 31 30 30 30 29 27 24 21 18 17 17 18 18 19 20 20 19 19 18 17 16 17 16 14 13 12 9 5 5 8 9 6 2 3 5 5 3 2 3 5 6 7 7 6 4 3 2 2 1 4 5 4 4 4 3 2 3 5
15 15 13 13 14 14 14 14 16 16 16 16 17 19 22 25 27 28 28 28 28 28 28 28 27 25 26 28 30 30 31 31 31 30 29 27 24 21 20 19 18 17 18 19 19 19 20 20 18 17 17 17 16 14 13 11 8 6 8 10 7 4 6 6 4 2 2 5 6 6 6 7 8 8 7 6 5 4 5 6 6 5 4 4 2 2 4
11 13 14 15 15 15 15 15 16 18 20 19 18 20 24 28 30 29 28 27 27 26 27 28 28 26 26 26 25 26 29 32 32 31 30 29 26 25 24 23 23 23 20 18 16 16 17 20 21 19 17 17 17 16 14 13 10 8 10 11 8 7 7 5 4 3 3 5 7 7 6 7 8 7 6 6 6 6 5 5 5 5 4 4 4 3 3
7 10 13 15 15 15 15 15 16 20 24 25 23 22 25 28 29 27 25 24 25 25 27 28 27 26 25 25 25 27 30 33 33 32 31 29 27 26 24 23 25 25 22 19 18 17 17 20 24 22 17 17 18 18 16 14 12 11 11 11 9 9 8 6 5 4 3 4 7 9 7 7 6 5 5 5 5 4 3 3 4 4 3 4 4 4 3
9 12 15 16 16 17 17 17 18 21 25 28 29 28 29 30 29 25 23 23 25 26 28 29 29 28 28 29 30 31 33 34 33 32 31 28 25 23 21 22 24 24 22 21 21 19 18 22 28 26 20 18 20 20 18 16 13 13 13 12 11 10 10 9 7 5 5 5 9 9 7 6 6 4 3 4 4 3 3 3 2 2 3 5 5 4 4
13 15 16 15 16 18 20 20 20 21 23 27 30 30 31 32 31 27 25 25 26 27 28 30 31 32 32 33 32 31 32 33 32 31 30 28 25 24 22 23 24 23 22 20 18 16 15 23 30 28 22 20 21 21 19 17 15 14 13 13 13 13 12 11 10 7 6 8 10 9 8 8 8 6 5 5 5 5 5 4 2 2 4 4 4 3 2
17 17 16 15 17 19 21 21 21 20 21 25 29 31 31 31 31 29 26 26 27 28 29 30 31 32 33 32 29 27 27 29 29 28 28 27 27 26 24 23 22 22 22 19 16 15 19 26 28 26 23 21 21 20 19 19 17 14 12 12 14 14 14 13 11 9 8 9 10 10 10 10 10 9 8 7 7 6 6 5 4 4 4 4 3 2 1
20 20 18 18 19 20 21 21 21 20 20 23 28 31 31 29 29 29 27 27 28 29 29 29 29 29 29 29 27 26 26 27 27 27 26 24 23 25 26 23 20 20 22 20 17 18 24 28 27 24 23 22 21 20 21 21 19 15 13 13 13 14 13 13 12 11 11 11 11 11 11 11 11 10 8 8 9 8 8 7 6 6 5 5 4 3 2
21 21 21 22 21 21 21 21 21 21 22 24 27 30 30 28 27 27 28 28 29 30 30 30 30 29 29 30 29 28 28 29 29 28 25 20 18 22 26 25 21 20 21 22 21 21 23 26 27 25 23 22 20 20 21 22 20 16 13 13 12 13 13 12 12 12 13 12 11 11 10 10 10 9 7 7 9 10 10 9 8 8 7 7 6 5 4
21 22 24 24 23 22 23 24 23 24 25 24 22 24 29 30 27 26 27 30 32 32 32 33 33 32 32 32 31 30 29 29 29 30 29 26 23 22 22 22 21 21 21 22 23 23 23 26 28 28 25 22 20 20 22 23 22 19 15 13 12 14 15 13 12 12 13 13 11 9 8 8 8 7 5 4 6 9 11 11 11 9 9 9 8 7 5
21 21 22 24 24 24 25 25 24 23 21 18 15 18 26 30 29 26 27 30 34 35 35 34 34 33 33 34 33 30 28 26 26 28 31 31 28 24 20 19 21 22 22 23 25 24 23 26 30 31 27 24 22 22 23 24 25 23 20 16 14 14 16 15 13 12 12 11 10 10 9 8 7 6 5 4 5 7 11 13 13 12 11 11 10 8 6
21 20 21 24 24 24 24 24 22 19 18 18 19 21 26 29 30 28 27 29 32 35 36 35 35 35 35 35 34 32 28 25 23 25 29 31 31 28 24 22 23 25 26 27 27 25 24 26 31 32 29 25 24 25 25 25 26 25 22 19 16 15 16 15 14 13 12 12 12 11 9 9 8 9 8 7 5 6 8 11 13 14 13 12 11 9 8
22 22 22 23 23 23 23 21 18 17 19 22 24 26 28 28 28 27 27 28 30 32 34 34 35 36 36 36 34 32 29 27 25 25 27 28 28 28 27 26 27 29 30 30 29 27 26 27 30 31 28 26 26 26 26 27 27 26 22 18 16 16 16 14 13 13 14 14 12 10 10 10 10 10 9 8 7 6 7 9 12 14 14 14 12 10 9
22 21 21 21 22 23 23 21 18 19 22 24 25 27 29 27 24 23 26 28 29 29 30 31 32 32 33 33 33 31 30 31 31 29 28 27 27 26 27 27 29 31 32 33 31 30 29 30 30 29 27 25 25 25 27 28 28 25 21 18 18 18 16 14 13 15 15 13 11 11 11 11 10 10 9 8 8 7 7 7 8 10 12 13 13 11 10
22 21 21 23 24 26 26 25 23 23 24 25 26 27 27 26 24 24 26 27 28 27 27 27 28 30 30 31 32 32 32 32 31 30 27 25 24 24 24 25 26 29 32 33 32 32 31 31 29 27 25 23 22 23 25 27 26 23 21 20 20 19 16 15 16 16 15 12 12 12 12 11 11 10 9 9 9 9 9 9 9 9 10 12 13 11 10
25 25 25 26 26 27 27 28 29 28 27 26 25 26 26 26 25 24 24 25 27 27 27 26 27 29 31 32 33 33 33 32 31 30 28 25 23 22 22 22 23 26 30 31 32 32 32 30 27 25 23 21 21 21 23 25 25 24 22 22 22 19 16 15 15 16 15 14 13 14 13 12 11 10 9 10 10 11 10 10 10 9 10 12 12 11 11
Wind_Direction
67 94 104 81 82 72 46 35 359 270 185 153 148 189 189 161 156 169 167 157 152 161 164 157 154 150 144 143 141 137 135 133 131 126 119 118 114 109 106 99 92 87 84 87 94 102 111 103 91 92 100 97 90 88 88 86 84 82 78 73 71 71 72 71 69 66 63 59 56 56 58 61 60 56 55 53 52 51 49 46 42 37 35 34 33 31 27
41 37 70 89 93 80 51 37 14 351 329 141 129 116 104 98 125 144 144 145 140 145 150 144 140 139 136 136 136 136 137 137 134 130 126 124 120 116 115 109 102 95 92 93 93 98 109 105 90 92 100 97 93 93 91 85 82 82 79 73 70 71 71 70 69 68 65 61 59 56 57 61 62 58 55 54 52 51 49 46 43 39 37 36 34 31 27
24 15 67 88 98 94 72 39 17 9 21 78 97 106 98 81 82 123 128 124 122 136 140 134 136 140 138 139 141 140 140 141 138 133 130 128 125 123 122 118 112 101 92 90 90 94 104 106 94 92 99 101 100 98 93 87 85 83 79 74 71 72 73 72 71 68 65 62 60 58 57 59 62 60 56 54 53 51 47 43 41 39 37 36 34 31 29
354 339 54 88 93 86 70 33 11 1 359 71 105 116 125 125 125 125 125 131 148 153 144 139 143 147 144 145 145 141 142 145 140 135 132 130 129 128 126 122 117 110 99 94 96 102 106 105 97 96 101 104 103 102 98 93 91 88 81 76 73 74 75 75 72 69 66 63 60 58 57 56 58 59 57 53 50 49 46 42 39 37 35 33 32 29 27
284 305 335 80 74 68 50 348 341 336 325 89 107 77 93 135 136 139 152 162 155 149 147 147 151 153 152 152 149 144 146 146 138 132 131 131 131 131 130 129 129 127 115 104 104 108 107 105 103 102 102 100 101 106 104 98 95 91 84 78 77 78 79 77 75 73 69 65 61 59 58 57 56 56 55 50 45 43 42 41 40 38 34 31 30 27 24
210 283 318 36 66 93 257 307 303 213 271 329 109 91 81 111 119 120 131 135 140 147 152 152 151 153 152 149 147 146 147 145 135 131 132 131 132 131 131 133 134 131 122 110 107 108 106 106 107 105 102 98 101 109 108 101 96 94 89 84 82 82 81 79 78 76 71 66 63 61 61 60 57 55 52 47 43 40 39 40 40 37 32 29 28 25 22
172 288 12 75 139 235 289 341 1 94 93 91 98 81 45 22 95 112 120 131 143 146 145 143 139 137 133 129 134 140 141 139 134 133 135 132 131 133 133 134 134 130 123 112 109 110 107 107 107 106 105 102 100 106 108 102 98 97 93 89 85 83 82 80 79 78 73 69 66 64 63 62 60 56 50 45 43 42 44 46 41 34 29 26 24 23 20
109 33 42 111 205 297 22 17 25 93 99 107 90 70 16 343 111 132 131 135 139 134 130 131 125 118 111 104 117 133 132 132 132 132 134 133 133 137 138 136 134 128 119 112 113 114 110 109 108 106 107 104 98 104 110 107 103 101 98 93 90 87 83 80 79 79 76 71 68 66 64 63 61 57 52 48 47 47 50 50 43 36 32 28 24 21 19
100 97 59 63 209 298 69 338 256 142 145 198 109 99 316 320 326 146 137 133 134 129 127 128 122 115 109 101 113 137 132 132 132 130 133 135 137 140 139 136 131 125 117 113 114 114 112 112 111 107 106 104 101 108 116 115 109 105 101 97 94 89 83 80 80 80 77 72 69 67 64 63 61 58 55 52 50 50 50 47 42 37 34 32 28 23 20
102 110 93 92 188 226 206 211 235 210 142 153 112 100 17 306 278 172 144 138 138 133 133 134 128 120 116 123 154 154 139 134 132 131 134 135 138 140 138 135 132 126 121 117 114 111 111 112 112 110 108 107 105 109 117 121 117 110 105 101 96 89 84 82 82 82 80 73 69 66 64 63 62 58 56 53 51 51 49 45 41 36 33 31 29 25 22
122 113 120 165 196 236 205 196 201 129 126 128 97 69 274 238 233 188 151 144 144 143 144 144 139 135 137 151 171 162 144 138 136 135 136 137 139 139 135 134 133 130 125 121 116 112 111 111 112 114 113 110 104 100 106 119 121 113 108 103 95 90 87 84 84 84 81 75 69 65 64 64 63 60 57 54 52 51 49 45 41 36 31 30 28 26 23
140 115 114 181 216 245 206 187 169 149 135 102 86 118 229 188 183 187 162 151 149 150 151 151 151 154 156 159 164 155 141 136 137 139 139 141 142 140 135 131 129 128 126 122 117 114 115 114 111 111 112 111 104 91 95 114 122 116 113 107 95 91 90 88 87 85 81 77 71 65 63 64 64 63 60 57 53 50 49 46 42 38 33 29 27 25 23
130 116 109 224 261 240 200 177 162 153 129 89 122 220 217 168 168 179 165 153 153 154 154 155 155 136 125 137 145 141 134 134 137 140 141 143 145 144 140 135 129 127 125 122 119 117 118 120 115 111 111 111 104 91 95 114 123 118 115 111 98 91 91 90 90 86 80 78 74 68 64 63 65 65 62 57 53 49 47 44 41 38 34 30 28 25 23
129 114 102 57 287 243 175 155 154 151 139 156 215 222 177 159 162 162 154 153 153 148 140 128 120 113 116 129 133 131 133 136 138 141 143 144 143 141 139 136 132 128 125 125 126 122 117 120 120 117 117 114 107 98 98 112 122 119 115 114 103 97 96 91 90 88 82 80 78 72 65 61 63 65 62 56 52 48 45 42 40 37 33 29 27 24 23
115 70 89 122 252 212 155 140 144 168 176 200 197 143 131 149 152 146 146 149 143 133 123 117 123 123 125 131 130 128 134 137 138 143 145 144 141 137 134 134 133 131 129 131 133 125 116 120 122 120 118 116 112 107 103 107 109 101 96 98 94 92 98 99 94 90 86 82 78 73 65 59 60 62 60 55 50 46 43 41 38 35 32 28 25 23 22
133 137 172 209 246 213 151 142 160 197 191 172 152 135 132 145 147 143 144 144 138 133 129 128 129 128 130 136 134 133 137 138 140 144 145 143 142 138 133 134 136 136 133 134 136 126 115 120 127 127 123 119 117 114 109 105 101 89 81 83 83 80 82 95 104 100 92 83 74 70 64 56 56 58 57 53 49 44 42 40 37 35 31 28 25 23 21
153 167 203 248 293 17 91 113 140 143 131 137 142 140 141 148 150 147 144 143 141 136 134 133 134 135 140 141 137 135 138 141 143 143 142 142 141 137 132 133 136 137 135 136 137 128 116 118 126 130 129 124 121 121 115 107 102 94 84 82 83 77 71 75 86 96 100 89 71 64 61 53 51 54 53 50 48 44 41 40 38 35 32 28 25 24 23
141 75 21 356 45 65 66 66 88 115 119 128 134 133 137 141 140 140 141 141 140 140 139 138 138 143 145 141 136 136 139 143 142 138 138 141 140 136 134 134 135 136 137 138 137 132 123 118 121 125 124 118 113 117 121 115 105 96 87 81 80 76 69 67 68 73 88 89 67 57 55 49 46 49 49 48 46 43 40 40 39 36 33 29 26 25 24
132 44 3 68 90 102 100 88 81 87 100 115 127 129 134 134 131 134 138 136 138 142 142 140 140 145 145 140 136 138 141 142 138 134 136 140 139 138 139 139 139 141 143 143 144 143 137 126 124 127 125 116 109 109 114 119 111 99 92 88 80 77 78 72 66 69 78 80 66 57 53 48 43 44 45 44 41 40 40 39 38 37 34 30 27 25 23
100 122 162 112 84 88 103 104 107 109 107 109 112 116 123 125 125 131 136 136 139 144 144 142 141 143 144 141 140 142 141 138 135 135 139 140 139 138 140 141 143 146 146 144 144 145 141 130 126 128 126 121 120 115 111 115 112 98 95 96 87 83 88 82 71 73 78 77 72 67 59 49 43 42 43 41 36 36 38 38 36 36 34 32 30 28 25
87 103 137 119 88 65 68 92 109 123 124 121 119 119 123 125 127 132 137 139 142 144 144 144 142 141 143 142 140 140 139 137 137 139 141 140 139 140 141 143 147 149 147 145 141 140 140 131 123 130 134 131 129 127 122 119 112 100 99 98 89 88 97 91 79 77 77 75 75 74 66 54 47 45 45 43 36 31 33 35 35 34 32 30 30 31 31
150 177 166 146 122 120 149 138 126 126 127 125 124 127 131 134 139 142 140 139 142 144 145 147 144 141 141 142 139 137 136 139 141 142 142 141 142 143 144 147 150 151 151 151 147 145 147 138 120 128 142 142 135 132 133 132 126 117 112 101 88 92 103 100 89 84 79 74 73 73 68 62 58 54 52 51 45 36 31 29 31 34 33 29 27 29 32
196 183 167 150 118 122 148 146 134 132 129 126 129 135 137 139 143 143 141 141 142 143 146 149 147 142 141 142 140 134 133 138 141 141 141 141 141 143 145 147 151 152 153 152 150 149 149 140 120 122 140 142 135 132 137 141 143 138 125 105 94 104 112 109 101 95 86 76 71 70 69 67 63 57 56 58 53 44 37 31 28 33 35 32 29 29 30
115 144 154 144 121 127 145 144 136 133 129 128 132 136 136 139 142 142 142 145 145 143 143 146 146 144 143 142 139 134 133 137 137 137 138 140 140 142 146 148 151 153 153 152 153 153 149 141 124 118 130 137 137 138 141 143 149 147 127 101 96 112 117 107 99 98 96 87 79 75 71 67 62 56 56 59 55 47 43 39 37 38 37 34 33 31 29
122 126 133 121 117 125 135 132 129 131 130 130 133 135 136 139 142 143 143 145 147 146 140 138 143 145 143 140 137 135 135 136 137 136 137 139 141 143 147 152 154 155 154 153 154 155 153 149 137 122 118 125 137 142 134 131 148 149 122 92 96 118 118 101 93 102 110 104 93 83 71 63 61 58 55 55 52 47 43 43 46 47 40 36 35 33 29
120 118 109 101 107 121 128 125 127 134 132 130 131 134 137 139 141 144 145 146 147 147 142 139 142 144 143 140 137 136 137 138 139 140 140 141 144 148 153 157 158 156 154 153 153 153 152 153 152 135 113 107 118 123 113 118 140 140 112 91 101 118 114 100 96 116 129 118 103 89 72 59 61 63 59 53 48 43 40 42 47 46 39 36 37 35 29
123 123 117 108 112 134 143 138 139 141 135 132 132 136 139 140 141 141 141 142 143 144 144 144 142 140 141 141 139 139 140 141 141 143 145 149 152 155 158 160 159 157 156 153 151 153 153 153 155 144 120 110 113 109 106 122 139 130 105 95 106 117 116 102 86 98 132 131 116 99 74 58 61 66 61 52 42 37 38 42 44 41 35 34 37 36 29
128 128 128 134 147 157 148 136 136 136 134 135 139 140 140 140 139 138 137 138 138 139 141 143 142 140 141 143 142 142 143 145 146 149 153 157 160 159 159 161 161 161 160 156 154 155 154 154 157 150 133 127 129 115 107 125 141 133 110 101 104 108 110 99 67 58 100 140 133 114 79 61 69 71 62 48 35 35 43 44 38 34 32 29 32 35 32
114 99 99 120 134 133 127 129 134 136 138 142 144 144 142 142 142 141 140 139 137 135 138 143 144 145 146 147 146 146 147 150 155 158 161 163 162 160 163 166 166 164 162 160 159 160 159 157 159 157 150 147 152 142 120 123 139 141 121 106 102 93 80 72 44 19 19 144 148 132 92 74 88 78 59 40 26 34 47 42 31 31 29 24 25 28 30
111 104 102 109 120 123 128 136 141 144 146 146 145 144 145 145 143 142 143 142 138 138 142 145 145 147 148 149 151 154 157 160 162 165 166 166 163 163 167 170 170 170 168 165 164 164 165 165 163 160 157 156 158 156 135 123 135 147 133 112 107 90 64 50 33 24 54 143 153 151 136 118 110 85 54 23 17 33 46 36 28 28 24 22 24 24 25
113 115 118 122 126 128 132 140 145 145 145 143 144 147 147 145 143 143 145 143 140 143 146 145 145 148 151 153 156 159 160 162 164 164 165 166 166 166 168 170 172 174 175 174 173 171 168 168 167 163 161 162 164 163 147 129 131 142 137 120 117 108 63 36 34 45 107 150 161 174 184 154 114 88 58 359 0 27 41 33 25 22 16 18 24 23 20
120 124 128 132 135 134 137 146 149 147 145 145 149 151 148 145 146 146 145 144 144 145 146 146 147 152 153 154 156 158 158 160 162 161 160 164 168 171 174 177 179 179 177 179 180 176 169 167 169 170 170 173 175 171 159 143 133 136 137 132 131 126 53 14 44 74 125 157 173 192 193 165 123 99 75 11 350 355 17 28 26 16 10 14 22 23 20
136 142 148 154 155 151 152 157 156 152 152 150 147 147 144 142 142 143 144 144 143 144 146 148 152 155 154 153 155 157 158 158 159 160 162 167 173 179 182 184 185 180 175 175 177 176 174 172 172 175 180 184 182 177 173 164 153 151 155 157 155 157 306 41 72 82 116 155 182 211 211 196 166 125 114 75 26 321 307 353 20 7 1 11 22 25 24
150 155 160 161 160 157 159 162 159 155 151 144 142 144 143 142 142 144 145 144 144 148 152 154 155 156 156 156 157 157 157 155 156 162 167 174 181 185 187 192 195 188 179 174 175 178 180 181 180 183 188 189 180 170 166 164 170 185 189 183 180 198 217 115 102 81 85 106 83 357 244 229 226 204 163 168 50 4 332 314 347 353 348 359 17 23 25
144 144 150 153 151 148 151 156 159 157 149 143 146 149 146 143 143 144 147 150 152 155 158 158 158 159 160 160 159 160 160 161 164 168 170 173 177 181 183 190 193 186 178 178 182 183 184 185 186 187 189 188 187 183 173 166 181 208 206 197 197 215 186 143 131 108 94 76 38 27 39 194 202 196 195 195 159 17 358 338 317 329 336 341 4 21 22
145 144 150 156 154 151 150 154 158 155 146 142 150 153 148 143 144 148 153 157 158 159 161 161 160 159 160 162 164 167 168 169 171 173 175 173 171 170 169 175 180 178 178 184 191 192 189 188 190 193 193 192 193 195 193 190 197 204 195 190 194 212 204 171 149 129 117 43 27 56 91 113 141 183 225 219 210 359 8 8 348 326 333 333 334 8 18
153 153 157 162 160 156 156 161 162 157 149 148 154 157 151 146 147 152 157 159 159 161 164 164 162 163 167 170 172 174 176 177 177 179 181 182 181 178 173 174 178 181 185 191 195 196 195 195 196 199 202 200 198 197 196 197 202 198 191 190 193 193 179 169 153 126 100 78 82 99 109 108 109 119 128 142 154 59 42 45 34 2 353 350 326 337 6
160 161 163 168 167 164 165 170 170 165 156 153 158 161 157 152 151 154 159 162 164 166 168 170 172 174 175 175 177 179 180 181 182 183 185 187 190 190 188 188 191 195 198 201 202 202 204 204 202 203 207 209 208 203 199 204 214 211 195 193 193 167 154 161 168 167 130 116 117 124 121 109 104 103 102 105 109 103 86 67 49 38 40 47 35 356 359
163 166 167 170 172 173 173 173 174 171 165 161 163 164 161 158 157 159 162 166 169 170 171 173 176 177 176 176 179 182 183 183 185 186 187 188 191 195 199 203 206 207 208 210 211 214 217 213 206 204 210 213 211 206 203 208 215 204 188 189 190 177 168 177 200 202 156 133 140 147 138 125 120 110 104 110 114 107 93 70 55 56 63 63 59 50 25
168 171 170 171 176 179 176 173 175 176 172 168 167 167 164 163 164 165 167 170 174 178 178 176 174 174 177 178 180 184 187 187 187 189 189 190 193 198 204 210 213 214 215 217 219 229 235 221 207 204 210 213 210 207 204 205 205 197 191 192 194 191 193 198 202 208 215 182 164 158 149 142 141 133 129 138 136 120 109 90 64 60 75 85 80 70 50
179 177 173 173 178 181 178 174 174 176 174 170 169 169 168 168 168 171 174 174 177 181 183 179 175 175 179 183 185 188 189 189 190 191 191 191 192 196 205 214 216 214 215 219 228 241 242 219 206 207 215 218 213 209 206 203 201 197 199 206 209 206 206 206 203 213 237 215 184 174 173 175 174 172 180 185 179 169 164 153 94 72 104 112 102 84 61
184 180 175 172 174 175 174 170 167 169 172 172 171 171 172 172 175 179 182 181 180 182 184 184 184 184 185 187 188 189 189 190 191 192 193 196 198 200 206 215 216 211 211 222 236 243 228 206 203 209 217 217 213 210 208 206 204 203 207 215 216 211 210 214 216 216 215 202 193 195 205 207 203 208 215 216 214 210 198 182 158 140 142 135 123 109 77
182 179 175 174 173 172 170 166 161 161 169 174 173 172 174 176 179 183 186 184 182 184 185 188 189 189 187 186 186 186 188 191 193 194 198 204 210 211 215 220 216 206 204 215 229 223 205 199 203 210 215 214 213 212 210 208 209 213 215 213 209 207 214 224 228 222 212 206 206 214 223 224 222 224 229 234 238 230 211 192 178 175 179 179 177 173 103
177 174 172 173 175 173 171 169 164 162 169 176 176 175 177 179 182 186 187 186 186 187 189 189 189 188 186 184 183 184 188 192 195 197 201 207 216 220 224 227 222 208 202 209 217 215 208 206 207 210 213 215 217 216 212 209 210 215 218 213 208 210 219 228 229 226 222 219 220 227 236 239 235 232 239 251 250 234 209 192 192 200 205 207 212 221 236
174 173 170 170 172 173 173 173 172 170 173 177 179 181 184 187 188 189 190 190 189 189 189 189 188 187 186 187 188 193 199 202 203 203 202 206 217 224 224 225 225 217 209 209 214 218 218 217 214 212 213 217 218 215 212 209 207 211 218 219 214 210 212 219 227 231 230 229 231 238 244 242 233 231 244 262 257 239 220 208 210 218 224 228 231 233 237
175 175 172 171 174 178 179 179 179 178 178 178 181 187 193 196 195 190 189 190 191 191 190 191 191 191 192 194 197 202 206 208 210 211 211 211 216 221 220 218 218 217 212 211 215 221 225 224 219 216 217 219 217 213 210 209 208 211 218 223 222 221 221 225 236 244 242 236 230 227 220 212 209 214 230 256 252 239 229 224 224 229 237 242 241 236 232
174 175 174 175 178 181 183 183 182 179 178 179 184 191 195 199 201 197 192 190 192 193 193 193 194 195 198 201 203 205 205 205 208 215 219 220 222 226 225 217 209 204 203 208 215 222 226 226 221 218 217 218 216 214 212 213 214 216 219 222 230 235 233 232 243 257 251 231 211 201 196 193 198 211 223 236 242 239 235 232 233 238 243 243 238 231 227
175 178 179 180 180 181 182 183 182 181 182 186 192 194 195 198 202 203 199 192 190 192 194 196 197 199 202 205 206 206 207 206 206 213 221 225 228 232 234 226 214 207 207 211 216 221 226 225 221 216 215 217 217 217 218 218 219 220 222 226 234 238 235 236 247 251 233 209 198 200 205 208 211 217 222 225 228 232 234 236 241 246 247 241 232 227 228
181 182 181 180 181 182 183 183 185 190 193 192 193 196 197 196 197 201 201 196 192 192 194 198 200 202 204 206 207 209 213 215 216 218 221 223 225 230 234 233 227 223 222 222 223 225 226 223 217 214 214 216 219 222 224 224 222 223 226 231 236 237 239 242 241 226 208 202 206 215 218 219 220 222 225 231 238 246 248 245 243 245 244 239 232 229 228
181 180 180 181 183 185 187 187 190 195 196 194 194 196 196 193 192 196 200 200 199 200 201 203 205 207 206 207 210 214 217 219 220 222 222 220 221 225 231 234 235 234 232 231 230 229 225 219 214 213 215 218 221 225 227 225 223 224 230 236 239 241 242 237 223 211 207 213 221 222 220 221 224 226 231 240 246 249 247 239 235 238 239 234 229 226 223
181 181 184 187 189 191 193 195 196 196 197 197 197 197 196 194 195 199 201 200 201 204 206 208 212 214 213 212 214 218 220 220 221 222 223 223 222 223 226 232 237 238 236 234 232 228 222 216 213 214 217 220 224 228 228 224 223 226 233 238 241 242 239 227 216 214 219 226 227 224 223 225 227 232 241 249 250 249 248 245 244 243 236 226 219 218 220
186 187 188 190 192 194 197 199 200 201 202 202 201 201 202 202 203 205 206 203 202 202 205 209 214 217 218 218 219 222 225 226 226 225 226 227 226 222 221 224 231 236 237 234 228 221 215 212 212 214 218 223 227 229 226 223 223 227 233 237 239 240 237 227 221 224 229 232 230 228 226 226 231 240 252 258 256 254 251 248 244 236 223 214 214 220 227